Torna al catalogo

FENGYUN 1C DEB

AttivoPO
NORAD 30316·DEBRIS·🇨🇳 China

Lanciato May 10, 1999 da Taiyuan Satellite Launch Center

Loading…

Prossimi Passaggi (prossime 24 ore)

TLE

AggiornatoSource: Space-Track

Epoca: Sep 14, 2026, 06:46 UTC

1 30316U 99025AAD 26257.28219775  .00006033  00000-0  12273-2 0  9990
2 30316  98.6573  16.0518 0032651 269.6375  90.1082 14.61130443 23540

Traccia FENGYUN 1C DEB in tempo reale con AllMySat

Download on the App Store